Time,TemperatureF,DewpointF,PressureIn,WindDirection,WindDirectionDegrees,WindSpeedMPH,WindSpeedGustMPH,Humidity,HourlyPrecipIn,Conditions,Clouds,dailyrainin,SoftwareType,DateUTC
2013-02-03 00:03:00,29.0,29.0,-100.00,WSW,241,7.0,-999.0,100,0.00,,,0.00,,2013-02-03 05:03:00,
2013-02-03 00:12:00,29.0,29.0,-100.00,WSW,241,7.0,-999.0,100,0.00,,,0.00,,2013-02-03 05:12:00,
2013-02-03 00:52:00,31.0,31.0,-100.00,WSW,242,4.0,-999.0,100,0.00,,,0.00,,2013-02-03 05:52:00,
2013-02-03 01:02:00,31.0,31.0,-100.00,WSW,242,4.0,-999.0,100,0.00,,,0.00,,2013-02-03 06:02:00,
2013-02-03 01:11:00,31.0,31.0,-100.00,WSW,242,4.0,-999.0,100,0.00,,,0.00,,2013-02-03 06:11:00,
2013-02-03 01:52:00,30.0,30.0,-100.00,East,90,1.0,-999.0,100,0.00,,,0.00,,2013-02-03 06:52:00,
2013-02-03 02:02:00,30.0,30.0,-100.00,East,90,1.0,-999.0,100,0.00,,,0.00,,2013-02-03 07:02:00,
2013-02-03 02:11:00,30.0,30.0,-100.00,East,90,1.0,-999.0,100,0.00,,,0.00,,2013-02-03 07:11:00,
2013-02-03 02:52:00,31.0,31.0,-100.00,NW,325,2.0,-999.0,100,0.00,,,0.00,,2013-02-03 07:52:00,
2013-02-03 03:02:00,31.0,31.0,-100.00,NW,325,2.0,-999.0,100,0.00,,,0.00,,2013-02-03 08:02:00,
2013-02-03 03:11:00,31.0,31.0,-100.00,NW,325,2.0,-999.0,100,0.00,,,0.00,,2013-02-03 08:11:00,
2013-02-03 03:52:00,30.0,30.0,-100.00,ESE,103,1.0,-999.0,100,0.00,,,0.00,,2013-02-03 08:52:00,
2013-02-03 04:03:00,30.0,30.0,-100.00,ESE,103,1.0,-999.0,100,0.00,,,0.00,,2013-02-03 09:03:00,
2013-02-03 04:11:00,30.0,30.0,-100.00,ESE,103,1.0,-999.0,100,0.00,,,0.00,,2013-02-03 09:11:00,
2013-02-03 04:52:00,30.0,30.0,-100.00,NNW,336,0.0,-999.0,100,0.00,,,0.00,,2013-02-03 09:52:00,
2013-02-03 05:01:00,30.0,30.0,-100.00,NNW,336,0.0,-999.0,100,0.00,,,0.00,,2013-02-03 10:01:00,
2013-02-03 05:11:00,30.0,30.0,-100.00,NNW,336,0.0,-999.0,100,0.00,,,0.00,,2013-02-03 10:11:00,
2013-02-03 05:53:00,30.0,30.0,-100.00,NNW,345,4.0,-999.0,100,0.00,,,0.00,,2013-02-03 10:53:00,
2013-02-03 06:02:00,30.0,30.0,-100.00,NNW,345,4.0,-999.0,100,0.00,,,0.00,,2013-02-03 11:02:00,
2013-02-03 06:11:00,30.0,30.0,-100.00,NNW,345,4.0,-999.0,100,0.00,,,0.00,,2013-02-03 11:11:00,
2013-02-03 06:52:00,30.0,30.0,-100.00,North,9,6.0,-999.0,100,0.00,,,0.00,,2013-02-03 11:52:00,
2013-02-03 07:02:00,30.0,30.0,-100.00,North,9,6.0,-999.0,100,0.00,,,0.00,,2013-02-03 12:02:00,
2013-02-03 07:12:00,30.0,30.0,-100.00,North,9,6.0,-999.0,100,0.00,,,0.00,,2013-02-03 12:12:00,
2013-02-03 07:53:00,29.0,29.0,-100.00,North,7,6.0,-999.0,100,0.00,,,0.00,,2013-02-03 12:53:00,
2013-02-03 08:03:00,29.0,29.0,-100.00,North,7,6.0,-999.0,100,0.00,,,0.00,,2013-02-03 13:03:00,
2013-02-03 08:12:00,29.0,29.0,-100.00,North,7,6.0,-999.0,100,0.00,,,0.00,,2013-02-03 13:12:00,
2013-02-03 08:52:00,29.0,29.0,-100.00,NNE,18,6.0,-999.0,100,0.00,,,0.00,,2013-02-03 13:52:00,
2013-02-03 09:03:00,29.0,29.0,-100.00,NNE,18,6.0,-999.0,100,0.00,,,0.00,,2013-02-03 14:03:00,
2013-02-03 09:12:00,29.0,29.0,-100.00,NNE,18,6.0,-999.0,100,0.00,,,0.00,,2013-02-03 14:12:00,
2013-02-03 09:52:00,29.0,29.0,-100.00,North,11,8.0,-999.0,100,0.00,,,0.00,,2013-02-03 14:52:00,
2013-02-03 10:03:00,29.0,29.0,-100.00,North,11,8.0,-999.0,100,0.00,,,0.00,,2013-02-03 15:03:00,
2013-02-03 10:12:00,29.0,29.0,-100.00,North,11,8.0,-999.0,100,0.00,,,0.00,,2013-02-03 15:12:00,
2013-02-03 10:52:00,29.0,23.0,-100.00,North,8,10.0,-999.0,79,0.00,,,0.00,,2013-02-03 15:52:00,
2013-02-03 11:03:00,29.0,23.0,-100.00,North,8,10.0,-999.0,79,0.00,,,0.00,,2013-02-03 16:03:00,
2013-02-03 11:11:00,29.0,23.0,-100.00,North,8,10.0,-999.0,79,0.00,,,0.00,,2013-02-03 16:11:00,
2013-02-03 11:52:00,30.0,23.0,-100.00,North,355,8.0,-999.0,75,0.00,,,0.00,,2013-02-03 16:52:00,
2013-02-03 12:03:00,30.0,23.0,-100.00,North,355,8.0,-999.0,75,0.00,,,0.00,,2013-02-03 17:03:00,
2013-02-03 12:12:00,30.0,23.0,-100.00,North,355,8.0,-999.0,75,0.00,,,0.00,,2013-02-03 17:12:00,
2013-02-03 12:53:00,31.0,23.0,-100.00,NNW,329,6.0,-999.0,72,0.00,,,0.00,,2013-02-03 17:53:00,
2013-02-03 13:03:00,31.0,23.0,-100.00,NNW,329,6.0,-999.0,72,0.00,,,0.00,,2013-02-03 18:03:00,
2013-02-03 13:12:00,31.0,23.0,-100.00,NNW,329,6.0,-999.0,72,0.00,,,0.00,,2013-02-03 18:12:00,
2013-02-03 13:52:00,33.0,21.0,-100.00,WNW,289,6.0,-999.0,62,0.00,,,0.00,,2013-02-03 18:52:00,
2013-02-03 14:03:00,33.0,21.0,-100.00,WNW,289,6.0,-999.0,62,0.00,,,0.00,,2013-02-03 19:03:00,
2013-02-03 14:11:00,33.0,21.0,-100.00,WNW,289,6.0,-999.0,62,0.00,,,0.00,,2013-02-03 19:11:00,
2013-02-03 14:52:00,33.0,23.0,-100.00,WNW,301,12.0,-999.0,65,0.02,,,0.02,,2013-02-03 19:52:00,
2013-02-03 15:02:00,33.0,23.0,-100.00,WNW,301,12.0,-999.0,65,0.02,,,0.02,,2013-02-03 20:02:00,
2013-02-03 15:12:00,33.0,23.0,-100.00,WNW,301,12.0,-999.0,65,0.02,,,0.02,,2013-02-03 20:12:00,
2013-02-03 15:52:00,33.0,25.0,-100.00,WNW,292,13.0,-999.0,71,0.01,,,0.03,,2013-02-03 20:52:00,
2013-02-03 16:03:00,33.0,25.0,-100.00,WNW,292,13.0,-999.0,71,0.01,,,0.03,,2013-02-03 21:03:00,
2013-02-03 16:11:00,33.0,25.0,-100.00,WNW,292,13.0,-999.0,71,0.01,,,0.03,,2013-02-03 21:11:00,
2013-02-03 16:52:00,33.0,22.0,-100.00,WNW,301,14.0,-999.0,64,0.01,,,0.04,,2013-02-03 21:52:00,
2013-02-03 17:02:00,33.0,22.0,-100.00,WNW,301,14.0,-999.0,64,0.01,,,0.04,,2013-02-03 22:02:00,
2013-02-03 17:11:00,33.0,22.0,-100.00,WNW,301,14.0,-999.0,64,0.01,,,0.04,,2013-02-03 22:11:00,
2013-02-03 17:52:00,32.0,24.0,-100.00,WNW,299,10.0,-999.0,71,0.00,,,0.04,,2013-02-03 22:52:00,
2013-02-03 18:02:00,32.0,24.0,-100.00,WNW,299,10.0,-999.0,71,0.00,,,0.04,,2013-02-03 23:02:00,
2013-02-03 18:12:00,32.0,24.0,-100.00,WNW,299,10.0,-999.0,71,0.00,,,0.04,,2013-02-03 23:12:00,
2013-02-03 18:52:00,32.0,24.0,-100.00,WNW,290,4.0,-999.0,73,0.00,,,0.04,,2013-02-03 23:52:00,
2013-02-03 19:02:00,32.0,24.0,-100.00,WNW,290,4.0,-999.0,73,0.00,,,0.04,,2013-02-04 00:02:00,
2013-02-03 19:11:00,32.0,24.0,-100.00,WNW,290,4.0,-999.0,73,0.00,,,0.04,,2013-02-04 00:11:00,
2013-02-03 19:52:00,31.0,24.0,-100.00,WSW,255,3.0,-999.0,74,-99.99,,,0.00,,2013-02-04 00:52:00,
2013-02-03 20:01:00,31.0,24.0,-100.00,WSW,255,3.0,-999.0,74,-99.99,,,0.00,,2013-02-04 01:01:00,
2013-02-03 20:11:00,31.0,24.0,-100.00,WSW,255,3.0,-999.0,74,-99.99,,,0.00,,2013-02-04 01:11:00,
2013-02-03 20:52:00,31.0,22.0,-100.00,West,260,4.0,-999.0,70,0.00,,,0.00,,2013-02-04 01:52:00,
2013-02-03 21:02:00,31.0,22.0,-100.00,West,260,4.0,-999.0,70,0.00,,,0.00,,2013-02-04 02:02:00,
2013-02-03 21:11:00,31.0,22.0,-100.00,West,260,4.0,-999.0,70,0.00,,,0.00,,2013-02-04 02:11:00,
2013-02-03 21:52:00,32.0,23.0,-100.00,West,267,4.0,-999.0,69,0.00,,,0.00,,2013-02-04 02:52:00,
2013-02-03 22:02:00,32.0,23.0,-100.00,West,267,4.0,-999.0,69,0.00,,,0.00,,2013-02-04 03:02:00,
2013-02-03 22:11:00,32.0,23.0,-100.00,West,267,4.0,-999.0,69,0.00,,,0.00,,2013-02-04 03:11:00,
2013-02-03 22:52:00,32.0,23.0,-100.00,WSW,252,3.0,-999.0,70,0.00,,,0.00,,2013-02-04 03:52:00,
2013-02-03 23:02:00,32.0,23.0,-100.00,WSW,252,3.0,-999.0,70,0.00,,,0.00,,2013-02-04 04:02:00,
2013-02-03 23:11:00,32.0,23.0,-100.00,WSW,252,3.0,-999.0,70,0.00,,,0.00,,2013-02-04 04:11:00,
2013-02-03 23:52:00,33.0,25.0,-100.00,WSW,246,4.0,-999.0,73,0.00,,,0.00,,2013-02-04 04:52:00,